Regional Weather Roundup
Issued by NWS

Home | Current Version | Previous Version | Graphics & Text | Print | Product List | Glossary On
Versions: 1 2 3 4 5 6 7 8 9 10 11 12 13 14 15 16 17 18 19 20 21 22 23 24 25 26 27 28 29 30 31 32 33 34 35 36 37 38 39 40 41 42 43 44 45 46 47 48 49 50
000
ASUS43 KFSD 020602
RWRSD

WEATHER ROUNDUP FOR SOUTH DAKOTA
NATIONAL WEATHER SERVICE SIOUX FALLS SD
100 AM CDT SUN AUG 02 2015

NOTE: "FAIR" INDICATES FEW OR NO CLOUDS BELOW 12,000 FEET WITH NO
SIGNIFICANT WEATHER AND/OR OBSTRUCTIONS TO VISIBILITY.


SDZ001>005-009-010-012>017-020700-
NORTHWEST AND NORTH CENTRAL SOUTH DAKOTA

CITY           SKY/WX    TMP DP  RH WIND       PRES   REMARKS
BUFFALO          N/A     71  36  27 SW7       29.83S
FAITH            N/A     74  55  51 SW12      29.84S
MOBRIDGE       CLEAR     66  57  72 N3        29.76R
$$

SDZ012>016-024>037-041>051-057-063-072>074-020700-
SOUTHWEST AND SOUTH CENTRAL SOUTH DAKOTA

CITY           SKY/WX    TMP DP  RH WIND       PRES   REMARKS
RAPID CTY ARPT CLEAR     70  61  73 SW7       29.92F
PIERRE           N/A     75  61  61 SW10      29.78F
CUSTER         CLEAR     61  52  72 W3        30.11S
PHILIP         CLEAR     72  62  71 W10       29.84F
PINE RIDGE     CLEAR     70  58  65 S5        29.97F
WINNER         FAIR      74  59  59 SW12      29.85F
$$

SDZ004>011-016>023-039-040-020700-
NORTHEAST SOUTH DAKOTA

CITY           SKY/WX    TMP DP  RH WIND       PRES   REMARKS
ABERDEEN       CLEAR     61  58  90 S6        29.71S
WATERTOWN      CLEAR     71  65  81 SW12      29.77F
BROOKINGS      CLEAR     70  61  73 S8        29.82S
SISSETON         N/A     68  65  90 SW8       29.67F
$$

SDZ017-020-022-023-036>040-048>070-020700-
SOUTHEAST SOUTH DAKOTA

CITY           SKY/WX    TMP DP  RH WIND       PRES   REMARKS
SIOUX FALLS    CLEAR     73  63  70 SW7       29.82F
HURON          CLEAR     73  61  65 SW10      29.75F
MITCHELL       CLEAR     72  62  71 SW8       29.79F
YANKTON        CLEAR     73  61  64 SW10      29.83F
$$

ABBREVIATIONS USED IN REMARKS
   TC - TEMPERATURE IN CELSIUS
  WCI - WIND CHILL INDEX
   HX - HEAT INDEX
  VSB - VISIBILITY




USA.gov is the U.S. government's official web portal to all federal, state and local government web resources and services.